Time,TemperatureF,DewpointF,PressureIn,WindDirection,WindDirectionDegrees,WindSpeedMPH,WindSpeedGustMPH,Humidity,HourlyPrecipIn,Conditions,Clouds,dailyrainin,SoftwareType,DateUTC
2013-07-17 00:00:00,73.6,53.3,30.08,ENE,77,2.0,8.0,49,0.00,CLR,FEW,0.00,WeatherDisplay:10.37,2013-07-16 22:00:00,
2013-07-17 00:30:00,71.9,51.7,30.08,ENE,67,0.0,7.0,49,0.00,CLR,FEW,0.00,WeatherDisplay:10.37,2013-07-16 22:30:00,
2013-07-17 01:00:00,73.4,46.9,30.07,ENE,66,2.0,12.0,39,0.00,CLR,FEW,0.00,WeatherDisplay:10.37,2013-07-16 23:00:00,
2013-07-17 01:30:00,73.1,46.7,30.07,NE,53,5.0,12.0,39,0.00,CLR,FEW,0.00,WeatherDisplay:10.37,2013-07-16 23:30:00,
2013-07-17 02:00:00,72.9,47.2,30.06,NE,51,2.0,9.0,40,0.00,CLR,FEW,0.00,WeatherDisplay:10.37,2013-07-17 00:00:00,
2013-07-17 02:30:00,72.9,45.1,30.06,NE,49,2.0,10.0,37,0.00,CLR,FEW,0.00,WeatherDisplay:10.37,2013-07-17 00:30:00,
2013-07-17 03:00:00,72.3,47.3,30.05,NE,47,0.0,12.0,41,0.00,CLR,FEW,0.00,WeatherDisplay:10.37,2013-07-17 01:00:00,
2013-07-17 03:30:00,70.0,50.0,30.05,SE,137,0.0,7.0,49,0.00,CLR,FEW,0.00,WeatherDisplay:10.37,2013-07-17 01:30:00,
2013-07-17 04:00:00,70.4,49.8,30.05,NE,55,1.0,8.0,48,0.00,CLR,FEW,0.00,WeatherDisplay:10.37,2013-07-17 02:00:00,
2013-07-17 04:30:00,69.9,48.7,30.05,ENE,67,1.0,13.0,47,0.00,CLR,FEW,0.00,WeatherDisplay:10.37,2013-07-17 02:30:00,
2013-07-17 05:00:00,71.1,49.9,30.04,ENE,68,8.0,13.0,47,0.00,CLR,FEW,0.00,WeatherDisplay:10.37,2013-07-17 03:00:00,
2013-07-17 05:30:00,70.7,50.6,30.05,ENE,62,2.0,12.0,49,0.00,CLR,FEW,0.00,WeatherDisplay:10.37,2013-07-17 03:30:00,
2013-07-17 06:00:00,69.7,50.2,30.05,ENE,65,0.0,13.0,50,0.00,CLR,FEW,0.00,WeatherDisplay:10.37,2013-07-17 04:00:00,
2013-07-17 06:30:00,68.8,49.4,30.05,NE,46,2.0,13.0,50,0.00,CLR,FEW,0.00,WeatherDisplay:10.37,2013-07-17 04:30:00,
2013-07-17 07:00:00,70.7,48.3,30.06,ENE,72,8.0,17.0,45,0.00,CLR,FEW,0.00,WeatherDisplay:10.37,2013-07-17 05:00:00,
2013-07-17 07:30:00,72.2,48.5,30.06,NE,53,5.0,13.0,43,0.00,CLR,FEW,0.00,WeatherDisplay:10.37,2013-07-17 05:30:00,
2013-07-17 08:00:00,72.2,51.4,30.06,ENE,67,8.0,17.0,48,0.00,CLR,FEW,0.00,WeatherDisplay:10.37,2013-07-17 06:00:00,
2013-07-17 08:30:00,73.0,53.8,30.07,ENE,64,5.0,17.0,51,0.00,CLR,FEW,0.00,WeatherDisplay:10.37,2013-07-17 06:30:00,
2013-07-17 09:00:00,74.5,53.5,30.07,NE,52,3.0,12.0,48,0.00,CLR,FEW,0.00,WeatherDisplay:10.37,2013-07-17 07:00:00,
2013-07-17 09:30:00,75.5,52.7,30.07,ENE,60,5.0,15.0,45,0.00,CLR,FEW,0.00,WeatherDisplay:10.37,2013-07-17 07:30:00,
2013-07-17 10:00:00,75.8,54.7,30.07,ENE,65,3.0,13.0,48,0.00,CLR,FEW,0.00,WeatherDisplay:10.37,2013-07-17 08:00:00,
2013-07-17 10:30:00,77.5,55.7,30.07,ENE,67,5.0,12.0,47,0.00,CLR,FEW,0.00,WeatherDisplay:10.37,2013-07-17 08:30:00,
2013-07-17 11:00:00,78.6,57.8,30.07,NNE,14,2.0,12.0,49,0.00,CLR,FEW,0.00,WeatherDisplay:10.37,2013-07-17 09:00:00,
2013-07-17 11:30:00,79.8,59.5,30.06,SE,135,3.0,12.0,50,0.00,CLR,FEW,0.00,WeatherDisplay:10.37,2013-07-17 09:30:00,
2013-07-17 12:00:00,81.0,59.4,30.05,SE,131,2.0,8.0,48,0.00,CLR,FEW,0.00,WeatherDisplay:10.37,2013-07-17 10:00:00,
2013-07-17 12:30:00,81.8,57.8,30.05,ENE,71,3.0,12.0,44,0.00,CLR,FEW,0.00,WeatherDisplay:10.37,2013-07-17 10:30:00,
2013-07-17 13:00:00,81.9,57.2,30.05,ESE,107,1.0,12.0,43,0.00,CLR,FEW,0.00,WeatherDisplay:10.37,2013-07-17 11:00:00,
2013-07-17 13:30:00,82.5,55.7,30.05,SSE,147,2.0,12.0,40,0.00,CLR,FEW,0.00,WeatherDisplay:10.37,2013-07-17 11:30:00,
2013-07-17 14:00:00,83.5,55.2,30.04,ESE,119,3.0,12.0,38,0.00,CLR,FEW,0.00,WeatherDisplay:10.37,2013-07-17 12:00:00,
2013-07-17 14:30:00,83.8,55.5,30.04,ESE,110,1.0,12.0,38,0.00,CLR,FEW,0.00,WeatherDisplay:10.37,2013-07-17 12:30:00,
2013-07-17 15:00:00,84.5,55.3,30.03,East,91,3.0,10.0,37,0.00,CLR,FEW,0.00,WeatherDisplay:10.37,2013-07-17 13:00:00,
2013-07-17 15:30:00,84.1,55.7,30.02,ESE,111,3.0,10.0,38,0.00,CLR,FEW,0.00,WeatherDisplay:10.37,2013-07-17 13:30:00,
2013-07-17 16:00:00,84.7,55.5,30.02,SSE,154,5.0,9.0,37,0.00,CLR,FEW,0.00,WeatherDisplay:10.37,2013-07-17 14:00:00,
2013-07-17 16:30:00,84.8,56.4,30.02,ENE,61,1.0,9.0,38,0.00,CLR,FEW,0.00,WeatherDisplay:10.37,2013-07-17 14:30:00,
2013-07-17 17:00:00,84.2,55.9,30.02,East,100,1.0,10.0,38,0.00,CLR,FEW,0.00,WeatherDisplay:10.37,2013-07-17 15:00:00,